FENGYUN 1C DEB, 31180

Orbit data source: Space-Track

FENGYUN 1C DEB, 31180 is space debris in SSO originally from a launch on Mon, 10 May 1999 UTC launched from the Taiyaun Space Center, China (TSC). Fengyun 1C debris stems from the Chinese weather satellite Fengyun-1C, which was intentionally destroyed by a Chinese anti-satellite missile in 2007. This event dramatically increased the amount of space debris, with thousands of trackable fragments posing hazards to satellites and human spaceflight. The Fengyun 1C debris cloud has become a focal point in discussions about space sustainability and the need for international regulations to prevent the creation of new debris.

Loading next visibility...
Identifier
31180, 1999-025BJJ
Orbit
SSO
Country
Flag of CNCN / PRC
Related business
Manufacturer
Unknown
Mission
Spacecraft
Bus & Motor
Unknown
Mass
Unknown
Launch date (UTC)
1999-05-10 (27 years ago)
Launch vehicle
Unknown
Launch site
Taiyaun Space Center, China (TSC)
Object type
Payload
Rocket body
Debris
Shape & HBR
Unknown shape, 0.1 m
Radar Cross Section
Medium (>0.1 m² and <1 m²)

Expand to show TLE details & history
Last TLE update: 7 hours ago

TLE from 7 hours ago
0 FENGYUN 1C DEB
1 31180U 99025BJJ 26238.58563972  .00000482  00000-0  24432-3 0  9996
2 31180  99.2526   6.1469 0497286 106.3318 318.4446 13.70681612675858
Epoch: 2026-08-26T14:03Z
TLE epoch observation values (Epoch: 2026-08-26T14:03:19.271Z)
Latitude
59.60687°
Longitude
164.44375°
Altitude
741.157 km
Speed
7.624 km/s
True Right ascension
23h 20m 26s
True Declination
59° 27' 22"
Sunlit
Object was in daylight at epoch
Visualization orbit readout
Latitude
Unknown
Longitude
Unknown
Altitude
Unknown
Speed
Unknown
Apparent Right ascension
Unknown
Apparent Declination
Unknown
Sunlit
N/A
Visualization observer readout
Local Sidereal Time
12:04:39
Azimuth
Unknown
Elevation
Unknown
Doppler factor
Unknown
Orbital elements
Apogee altitude
1,360.99 km
Perigee altitude
627.742 km
Semi-major axis
7,372.503 km
Eccentricity
0.04973
Inclination
99.2526°
RAAN
6.1469°
Arg. of periapsis
106.3318°
True anomaly
314.4837°
Mean anomaly
318.4446°
Eccentric anomaly
316.48269°
Mean motion
3.42863 °/min
Orbital period
105 mins
BSTAR
0.00024432
Loading maneuver chart data...
Computing Atmospheric mass density...

Documentation

Showing up to 5 results
|